This is the latest recevied weather packets stored in our database for station/object IZ1UKX-13. If no packets are shown the sender has not sent any weather packets the latest 10 day(s).
| Time | Temp. | Humidity | Pressure | Rain* | Wind** | Luminosity | Snow |
|---|---|---|---|---|---|---|---|
| 1787651125 | 27.22° C | 61% | 1021.4 hPa | 0 mm | - | 0 W/m² | - |
| 1787650824 | 27.78° C | 59% | 1021.4 hPa | 0 mm | - | 0 W/m² | - |
| 1787650524 | 28.33° C | 59% | 1021.4 hPa | 0 mm | - | 0 W/m² | - |
| 1787650224 | 27.78° C | 59% | 1021.4 hPa | 0 mm | - | 0 W/m² | - |
| 1787649924 | 28.33° C | 56% | 1021.4 hPa | 0 mm | - | 0 W/m² | - |
| 1787649625 | 28.33° C | 59% | 1021.4 hPa | 0 mm | - | 0 W/m² | - |
| 1787649324 | 28.33° C | 58% | 1021.4 hPa | 0 mm | - | 0 W/m² | - |
| 1787649024 | 28.33° C | 57% | 1021.4 hPa | 0 mm | - | 0 W/m² | - |
| 1787648724 | 28.89° C | 56% | 1021.4 hPa | 0 mm | - | 0 W/m² | - |
| 1787648424 | 28.89° C | 57% | 1021.4 hPa | 0 mm | - | 0 W/m² | - |
| 1787648124 | 28.33° C | 57% | 1021.4 hPa | 0 mm | - | 0 W/m² | - |
| 1787647825 | 27.78° C | 59% | 1021.4 hPa | 0 mm | - | 0 W/m² | - |
| 1787647524 | 27.78° C | 61% | 1021.4 hPa | 0 mm | - | 0 W/m² | - |
| 1787647224 | 27.22° C | 62% | 1021.4 hPa | 0 mm | - | 0 W/m² | - |
| 1787646924 | 27.22° C | 62% | 1021.4 hPa | 0 mm | - | 0 W/m² | - |
| 1787646624 | 27.22° C | 61% | 1021.4 hPa | 0 mm | - | 0 W/m² | - |
| 1787646324 | 27.22° C | 63% | 1021.4 hPa | 0 mm | - | 0 W/m² | - |
| 1787646024 | 26.67° C | 64% | 1021.4 hPa | 0 mm | - | 0 W/m² | - |
| 1787645724 | 26.67° C | 64% | 1021.4 hPa | 0 mm | - | 0 W/m² | - |
| 1787645424 | 26.67° C | 65% | 1021.8 hPa | 0 mm | - | 0 W/m² | - |
| 1787645124 | 26.11° C | 67% | 1021.8 hPa | 0 mm | - | 0 W/m² | - |
| 1787644824 | 26.11° C | 67% | 1021.8 hPa | 0 mm | - | 0 W/m² | - |
| 1787644524 | 25.56° C | 66% | 1021.8 hPa | 0 mm | - | 0 W/m² | - |
| 1787644225 | 25.56° C | 68% | 1021.8 hPa | 0 mm | - | 0 W/m² | - |
| 1787643924 | 25° C | 68% | 1021.8 hPa | 0 mm | - | 0 W/m² | - |
* Rain latest hour (hover to see other rain measurements)
** Current wind speed in m/s (hover to see current wind gust speed)